Time,TemperatureF,DewpointF,PressureIn,WindDirection,WindDirectionDegrees,WindSpeedMPH,WindSpeedGustMPH,Humidity,HourlyPrecipIn,Conditions,Clouds,dailyrainin,SoftwareType,DateUTC
2013-02-17 00:03:00,46.4,38.0,30.04,ENE,59,0.0,0.0,73,0.00,,,0.00,weatherlink.com 1.10,2013-02-17 08:03:00,
2013-02-17 00:18:00,46.4,39.0,30.04,ENE,59,0.0,1.0,74,0.00,,,0.00,weatherlink.com 1.10,2013-02-17 08:18:00,
2013-02-17 00:33:00,46.1,39.0,30.03,ENE,59,0.0,1.0,76,0.00,,,0.00,weatherlink.com 1.10,2013-02-17 08:33:00,
2013-02-17 00:48:00,45.3,38.0,30.03,ENE,59,0.0,0.0,76,0.00,,,0.00,weatherlink.com 1.10,2013-02-17 08:48:00,
2013-02-17 01:03:00,45.2,38.0,30.03,NE,56,0.0,0.0,76,0.00,,,0.00,weatherlink.com 1.10,2013-02-17 09:03:00,
2013-02-17 01:18:00,45.4,38.0,30.03,NE,56,0.0,1.0,74,0.00,,,0.00,weatherlink.com 1.10,2013-02-17 09:18:00,
2013-02-17 01:33:00,45.8,37.0,30.03,NE,56,0.0,1.0,72,0.00,,,0.00,weatherlink.com 1.10,2013-02-17 09:33:00,
2013-02-17 01:48:00,46.3,37.0,30.03,NE,56,0.0,0.0,71,0.00,,,0.00,weatherlink.com 1.10,2013-02-17 09:48:00,
2013-02-17 02:03:00,47.3,38.0,30.02,NE,56,0.0,1.0,69,0.00,,,0.00,weatherlink.com 1.10,2013-02-17 10:03:00,
2013-02-17 02:18:00,47.0,38.0,30.02,NE,56,0.0,0.0,71,0.00,,,0.00,weatherlink.com 1.10,2013-02-17 10:18:00,
2013-02-17 02:33:00,45.8,37.0,30.02,NE,56,0.0,1.0,71,0.00,,,0.00,weatherlink.com 1.10,2013-02-17 10:33:00,
2013-02-17 02:48:00,45.7,36.0,30.01,NE,56,0.0,1.0,70,0.00,,,0.00,weatherlink.com 1.10,2013-02-17 10:48:00,
2013-02-17 03:03:00,46.0,36.0,30.00,NE,56,0.0,1.0,69,0.00,,,0.00,weatherlink.com 1.10,2013-02-17 11:03:00,
2013-02-17 03:18:00,45.1,37.0,30.00,ENE,65,0.0,1.0,73,0.00,,,0.00,weatherlink.com 1.10,2013-02-17 11:18:00,
2013-02-17 03:33:00,44.1,37.0,30.00,ENE,66,0.0,0.0,75,0.00,,,0.00,weatherlink.com 1.10,2013-02-17 11:33:00,
2013-02-17 03:48:00,44.2,36.0,30.00,ENE,66,0.0,0.0,74,0.00,,,0.00,weatherlink.com 1.10,2013-02-17 11:48:00,
2013-02-17 04:03:00,43.5,36.0,29.99,ENE,66,0.0,0.0,76,0.00,,,0.00,weatherlink.com 1.10,2013-02-17 12:03:00,
2013-02-17 04:18:00,42.8,36.0,30.00,ENE,66,0.0,0.0,78,0.00,,,0.00,weatherlink.com 1.10,2013-02-17 12:18:00,
2013-02-17 04:33:00,43.0,36.0,29.99,ENE,66,0.0,1.0,77,0.00,,,0.00,weatherlink.com 1.10,2013-02-17 12:33:00,
2013-02-17 04:48:00,43.5,36.0,29.99,ENE,66,0.0,0.0,75,0.00,,,0.00,weatherlink.com 1.10,2013-02-17 12:48:00,
2013-02-17 05:03:00,42.5,37.0,30.00,ENE,66,0.0,0.0,80,0.00,,,0.00,weatherlink.com 1.10,2013-02-17 13:03:00,
2013-02-17 05:18:00,40.9,36.0,30.00,ENE,66,0.0,0.0,82,0.00,,,0.00,weatherlink.com 1.10,2013-02-17 13:18:00,
2013-02-17 05:34:00,40.9,36.0,30.00,ENE,65,0.0,0.0,81,0.00,,,0.00,weatherlink.com 1.10,2013-02-17 13:34:00,
2013-02-17 05:49:00,41.1,36.0,30.00,ENE,58,0.0,2.0,82,0.00,,,0.00,weatherlink.com 1.10,2013-02-17 13:49:00,
2013-02-17 06:04:00,41.7,36.0,30.00,NE,53,0.0,1.0,79,0.00,,,0.00,weatherlink.com 1.10,2013-02-17 14:04:00,
2013-02-17 06:19:00,42.5,36.0,30.01,NE,53,0.0,1.0,77,0.00,,,0.00,weatherlink.com 1.10,2013-02-17 14:19:00,
2013-02-17 06:34:00,42.3,36.0,30.01,NE,53,0.0,0.0,79,0.00,,,0.00,weatherlink.com 1.10,2013-02-17 14:34:00,
2013-02-17 06:49:00,42.7,38.0,30.02,NE,53,0.0,0.0,82,0.00,,,0.00,weatherlink.com 1.10,2013-02-17 14:49:00,
2013-02-17 07:04:00,42.7,38.0,30.02,NE,40,1.0,1.0,82,0.00,,,0.00,weatherlink.com 1.10,2013-02-17 15:04:00,
2013-02-17 07:19:00,42.8,39.0,30.01,NE,40,0.0,1.0,87,0.00,,,0.00,weatherlink.com 1.10,2013-02-17 15:19:00,
2013-02-17 07:34:00,42.5,39.0,30.01,NW,307,0.0,3.0,88,0.00,,,0.00,weatherlink.com 1.10,2013-02-17 15:34:00,
2013-02-17 07:49:00,42.8,40.0,30.01,NW,306,0.0,1.0,88,0.00,,,0.00,weatherlink.com 1.10,2013-02-17 15:49:00,
2013-02-17 08:04:00,42.5,39.0,30.02,NW,306,0.0,0.0,86,0.00,,,0.00,weatherlink.com 1.10,2013-02-17 16:04:00,
2013-02-17 08:19:00,42.4,38.0,30.02,NW,306,0.0,0.0,85,0.00,,,0.00,weatherlink.com 1.10,2013-02-17 16:19:00,
2013-02-17 08:34:00,44.9,40.0,30.03,NW,306,0.0,0.0,82,0.00,,,0.00,weatherlink.com 1.10,2013-02-17 16:34:00,
2013-02-17 08:49:00,47.2,40.0,30.03,NW,306,0.0,0.0,77,0.00,,,0.00,weatherlink.com 1.10,2013-02-17 16:49:00,
2013-02-17 09:04:00,49.7,40.0,30.04,NE,40,0.0,2.0,70,0.00,,,0.00,weatherlink.com 1.10,2013-02-17 17:04:00,
2013-02-17 09:19:00,53.5,42.0,30.03,NE,40,0.0,1.0,66,0.00,,,0.00,weatherlink.com 1.10,2013-02-17 17:19:00,
2013-02-17 09:34:00,50.0,42.0,30.04,South,179,0.0,4.0,74,0.00,,,0.00,weatherlink.com 1.10,2013-02-17 17:34:00,
2013-02-17 09:49:00,49.5,42.0,30.04,South,179,1.0,3.0,76,0.00,,,0.00,weatherlink.com 1.10,2013-02-17 17:49:00,
2013-02-17 10:04:00,51.0,43.0,30.04,SSW,199,0.0,3.0,73,0.00,,,0.00,weatherlink.com 1.10,2013-02-17 18:04:00,
2013-02-17 10:19:00,53.3,44.0,30.04,South,177,3.0,4.0,71,0.00,,,0.00,weatherlink.com 1.10,2013-02-17 18:19:00,
2013-02-17 10:34:00,54.8,44.0,30.04,South,190,2.0,4.0,66,0.00,,,0.00,weatherlink.com 1.10,2013-02-17 18:34:00,
2013-02-17 10:49:00,55.8,43.0,30.04,SW,216,3.0,5.0,63,0.00,,,0.00,weatherlink.com 1.10,2013-02-17 18:49:00,
2013-02-17 11:04:00,56.9,45.0,30.04,SW,236,2.0,5.0,65,0.00,,,0.00,weatherlink.com 1.10,2013-02-17 19:04:00,
2013-02-17 11:19:00,57.3,43.0,30.04,South,182,4.0,5.0,60,0.00,,,0.00,weatherlink.com 1.10,2013-02-17 19:19:00,
2013-02-17 11:34:00,57.8,44.0,30.04,SW,234,4.0,7.0,61,0.00,,,0.00,weatherlink.com 1.10,2013-02-17 19:34:00,
2013-02-17 11:49:00,58.8,45.0,30.04,SSW,209,3.0,8.0,60,0.00,,,0.00,weatherlink.com 1.10,2013-02-17 19:49:00,
2013-02-17 12:04:00,59.3,44.0,30.03,South,188,3.0,7.0,58,0.00,,,0.00,weatherlink.com 1.10,2013-02-17 20:04:00,
2013-02-17 12:19:00,59.5,44.0,30.02,WSW,242,2.0,7.0,58,0.00,,,0.00,weatherlink.com 1.10,2013-02-17 20:19:00,
2013-02-17 12:34:00,60.2,43.0,30.01,SW,236,4.0,6.0,53,0.00,,,0.00,weatherlink.com 1.10,2013-02-17 20:34:00,
2013-02-17 12:49:00,61.1,44.0,30.01,SSW,195,3.0,6.0,53,0.00,,,0.00,weatherlink.com 1.10,2013-02-17 20:49:00,
2013-02-17 13:04:00,61.4,42.0,30.00,South,183,5.0,7.0,49,0.00,,,0.00,weatherlink.com 1.10,2013-02-17 21:04:00,
2013-02-17 13:19:00,62.0,43.0,30.00,SSE,166,3.0,7.0,50,0.00,,,0.00,weatherlink.com 1.10,2013-02-17 21:19:00,
2013-02-17 13:34:00,62.0,43.0,30.00,South,190,2.0,7.0,51,0.00,,,0.00,weatherlink.com 1.10,2013-02-17 21:34:00,
2013-02-17 13:49:00,62.6,45.0,29.99,SSE,165,2.0,7.0,52,0.00,,,0.00,weatherlink.com 1.10,2013-02-17 21:49:00,
2013-02-17 14:04:00,63.2,47.0,29.99,SSW,192,5.0,6.0,56,0.00,,,0.00,weatherlink.com 1.10,2013-02-17 22:04:00,
2013-02-17 14:19:00,63.2,44.0,29.99,South,178,4.0,8.0,50,0.00,,,0.00,weatherlink.com 1.10,2013-02-17 22:19:00,
2013-02-17 14:34:00,62.7,44.0,29.99,SW,234,3.0,7.0,51,0.00,,,0.00,weatherlink.com 1.10,2013-02-17 22:34:00,
2013-02-17 14:49:00,62.7,44.0,29.98,SW,216,6.0,8.0,50,0.00,,,0.00,weatherlink.com 1.10,2013-02-17 22:49:00,
2013-02-17 15:05:00,62.7,43.0,29.98,SSW,194,4.0,7.0,49,0.00,,,0.00,weatherlink.com 1.10,2013-02-17 23:05:00,
2013-02-17 15:20:00,62.6,42.0,29.98,South,184,5.0,7.0,48,0.00,,,0.00,weatherlink.com 1.10,2013-02-17 23:20:00,
2013-02-17 15:35:00,62.5,43.0,29.98,South,188,2.0,6.0,49,0.00,,,0.00,weatherlink.com 1.10,2013-02-17 23:35:00,
2013-02-17 15:50:00,62.5,43.0,29.98,South,188,4.0,6.0,49,0.00,,,0.00,weatherlink.com 1.10,2013-02-17 23:50:00,
2013-02-17 16:05:00,62.2,41.0,29.98,South,182,4.0,6.0,46,0.00,,,0.00,weatherlink.com 1.10,2013-02-18 00:05:00,
2013-02-17 16:20:00,61.8,41.0,29.97,South,171,2.0,6.0,47,0.00,,,0.00,weatherlink.com 1.10,2013-02-18 00:20:00,
2013-02-17 16:35:00,61.1,41.0,29.97,SSW,199,1.0,5.0,48,0.00,,,0.00,weatherlink.com 1.10,2013-02-18 00:35:00,
2013-02-17 16:50:00,60.7,42.0,29.97,South,177,1.0,4.0,50,0.00,,,0.00,weatherlink.com 1.10,2013-02-18 00:50:00,
2013-02-17 17:05:00,59.8,40.0,29.97,South,186,1.0,3.0,49,0.00,,,0.00,weatherlink.com 1.10,2013-02-18 01:05:00,
2013-02-17 17:20:00,58.5,40.0,29.97,SSW,194,0.0,3.0,51,0.00,,,0.00,weatherlink.com 1.10,2013-02-18 01:20:00,
2013-02-17 17:35:00,56.8,40.0,29.97,SSW,194,1.0,1.0,53,0.00,,,0.00,weatherlink.com 1.10,2013-02-18 01:35:00,
2013-02-17 17:50:00,55.1,39.0,29.97,SSW,194,1.0,2.0,56,0.00,,,0.00,weatherlink.com 1.10,2013-02-18 01:50:00,
2013-02-17 18:05:00,54.4,39.0,29.97,WSW,258,2.0,3.0,56,0.00,,,0.00,weatherlink.com 1.10,2013-02-18 02:05:00,
2013-02-17 18:20:00,54.6,39.0,29.97,WSW,246,0.0,2.0,55,0.00,,,0.00,weatherlink.com 1.10,2013-02-18 02:20:00,
2013-02-17 18:35:00,53.6,38.0,29.98,WSW,246,0.0,0.0,57,0.00,,,0.00,weatherlink.com 1.10,2013-02-18 02:35:00,
2013-02-17 18:50:00,52.7,39.0,29.98,WSW,246,0.0,1.0,59,0.00,,,0.00,weatherlink.com 1.10,2013-02-18 02:50:00,
2013-02-17 19:05:00,51.4,39.0,29.98,WSW,246,0.0,1.0,63,0.00,,,0.00,weatherlink.com 1.10,2013-02-18 03:05:00,
2013-02-17 19:20:00,50.3,39.0,29.98,WSW,246,0.0,0.0,65,0.00,,,0.00,weatherlink.com 1.10,2013-02-18 03:20:00,
2013-02-17 19:35:00,49.0,39.0,29.98,WSW,246,0.0,0.0,69,0.00,,,0.00,weatherlink.com 1.10,2013-02-18 03:35:00,
2013-02-17 19:50:00,48.0,40.0,29.98,WSW,246,0.0,0.0,73,0.00,,,0.00,weatherlink.com 1.10,2013-02-18 03:50:00,
2013-02-17 20:05:00,47.1,40.0,29.97,WSW,246,0.0,0.0,76,0.00,,,0.00,weatherlink.com 1.10,2013-02-18 04:05:00,
2013-02-17 20:20:00,46.6,40.0,29.98,WSW,246,0.0,0.0,77,0.00,,,0.00,weatherlink.com 1.10,2013-02-18 04:20:00,
2013-02-17 20:35:00,45.8,39.0,29.98,WSW,246,0.0,0.0,78,0.00,,,0.00,weatherlink.com 1.10,2013-02-18 04:35:00,
2013-02-17 20:50:00,45.3,40.0,29.98,WSW,246,0.0,0.0,80,0.00,,,0.00,weatherlink.com 1.10,2013-02-18 04:50:00,
2013-02-17 21:05:00,44.7,39.0,29.99,WSW,246,0.0,0.0,80,0.00,,,0.00,weatherlink.com 1.10,2013-02-18 05:05:00,
2013-02-17 21:20:00,44.4,39.0,29.99,WSW,246,0.0,0.0,82,0.00,,,0.00,weatherlink.com 1.10,2013-02-18 05:20:00,
2013-02-17 21:35:00,44.2,39.0,29.99,WSW,246,0.0,0.0,82,0.00,,,0.00,weatherlink.com 1.10,2013-02-18 05:35:00,
2013-02-17 21:50:00,43.7,39.0,29.99,WSW,246,0.0,0.0,84,0.00,,,0.00,weatherlink.com 1.10,2013-02-18 05:50:00,
2013-02-17 22:05:00,43.1,39.0,29.99,WSW,246,0.0,1.0,85,0.00,,,0.00,weatherlink.com 1.10,2013-02-18 06:05:00,
2013-02-17 22:20:00,42.8,39.0,29.99,WSW,246,0.0,0.0,86,0.00,,,0.00,weatherlink.com 1.10,2013-02-18 06:20:00,
2013-02-17 22:35:00,42.8,39.0,29.99,WSW,246,0.0,1.0,86,0.00,,,0.00,weatherlink.com 1.10,2013-02-18 06:35:00,
2013-02-17 22:50:00,42.4,39.0,29.99,WSW,246,0.0,1.0,87,0.00,,,0.00,weatherlink.com 1.10,2013-02-18 06:50:00,
2013-02-17 23:05:00,42.4,39.0,29.99,WSW,246,0.0,0.0,87,0.00,,,0.00,weatherlink.com 1.10,2013-02-18 07:05:00,
2013-02-17 23:20:00,42.2,39.0,29.99,WSW,246,0.0,0.0,87,0.00,,,0.00,weatherlink.com 1.10,2013-02-18 07:20:00,
2013-02-17 23:35:00,41.9,39.0,29.99,WSW,246,0.0,0.0,88,0.00,,,0.00,weatherlink.com 1.10,2013-02-18 07:35:00,
2013-02-17 23:50:00,42.0,39.0,29.99,WSW,246,0.0,0.0,88,0.00,,,0.00,weatherlink.com 1.10,2013-02-18 07:50:00,